Theta_e
331 331 332 332 332 329 325 317 315 325 328 326 328 326 325 324 326 327 328 327 326 320 321 324 329 329 330 330 328 326 326 322 315 316 317 315 310 309 308 317 323 321 320
334 331 331 332 332 330 325 321 314 319 324 324 322 318 320 320 320 319 318 317 315 314 316 316 319 326 326 327 326 325 319 313 312 314 315 312 311 308 308 315 323 323 322
336 331 330 331 331 330 324 323 315 315 317 318 322 328 325 323 320 316 315 315 320 319 317 314 315 321 323 321 321 320 313 311 312 312 313 312 311 308 306 308 317 321 320
335 331 330 329 329 329 324 323 319 315 319 317 329 328 324 321 320 317 315 322 326 323 316 314 315 319 319 324 323 320 315 312 312 312 312 312 312 313 312 307 309 312 313
335 332 330 328 327 327 324 323 321 316 317 323 321 317 317 322 321 320 319 322 321 318 313 313 313 316 318 326 323 321 319 314 312 311 312 312 313 313 312 310 307 306 308
332 330 330 329 327 326 325 322 323 320 316 318 325 324 324 329 325 323 322 322 320 317 311 311 312 324 324 324 322 319 316 313 313 311 311 312 313 312 312 311 310 307 308
332 332 331 329 329 327 326 324 323 323 319 315 320 324 324 324 326 325 322 320 320 316 313 310 312 315 319 318 318 316 313 312 311 311 310 311 313 313 313 312 312 311 309
331 331 332 331 328 328 327 327 325 324 323 320 316 320 326 324 323 323 322 322 321 318 316 314 314 311 310 311 311 310 310 310 310 309 310 310 311 312 313 316 312 313 312
332 331 328 328 328 328 328 328 327 326 325 324 321 318 319 320 318 317 320 323 322 321 318 317 316 315 315 314 311 311 311 310 311 310 310 310 310 311 313 322 323 316 315
332 331 329 328 326 327 327 328 328 327 326 326 325 324 321 318 318 317 318 319 321 325 321 319 318 318 316 315 315 315 314 315 315 314 316 315 312 311 313 314 321 323 321
328 328 328 328 327 327 327 327 326 326 326 326 326 327 326 324 322 320 319 318 318 322 323 324 324 324 321 318 317 318 319 319 317 316 317 317 317 316 316 315 318 320 322
327 327 327 327 327 327 328 328 327 325 325 325 326 327 327 327 326 326 324 320 320 321 322 323 323 323 321 321 321 320 320 321 321 321 320 319 319 318 318 318 320 321 321
324 325 324 325 327 326 327 330 328 329 328 327 324 325 326 326 326 327 326 325 323 323 325 326 325 323 323 323 322 322 322 321 322 322 322 322 322 322 321 321 322 323 323
322 322 325 325 327 327 327 329 330 329 329 329 330 330 326 330 331 329 328 327 326 327 325 325 325 326 326 326 325 325 325 324 324 324 324 324 324 323 323 324 324 324 324
321 321 321 321 321 322 323 328 330 330 330 331 332 332 331 329 327 327 327 327 326 326 325 325 324 324 324 324 325 324 324 324 323 323 323 323 324 323 323 323 324 324 324
320 319 318 319 319 320 320 320 324 331 332 332 334 334 332 331 329 327 327 327 327 326 326 326 325 325 325 324 324 324 324 324 324 323 323 323 322 322 322 322 322 323 323
319 318 318 319 319 319 319 319 321 329 332 332 332 331 331 330 329 328 327 327 326 326 326 326 326 325 325 325 325 324 325 325 324 323 322 322 321 321 321 321 321 321 322
318 318 318 319 319 319 319 318 319 323 329 331 332 331 329 328 328 327 327 326 326 326 325 325 326 325 325 325 325 324 324 324 323 322 322 321 321 320 321 321 321 320 320
318 317 318 319 319 319 319 319 319 321 324 326 327 327 328 327 328 326 327 326 325 325 325 325 324 324 323 324 324 323 323 322 322 321 321 320 319 320 321 320 319 319 320
317 317 317 318 319 319 318 318 317 317 318 318 319 320 322 326 328 328 326 325 324 323 323 323 323 323 323 322 322 322 321 321 321 320 319 317 317 320 319 319 319 319 318
316 316 317 317 318 317 316 314 313 313 314 316 317 318 320 323 325 325 323 322 324 322 323 323 322 323 322 321 321 320 320 319 319 317 317 317 319 317 316 317 318 317 316
316 316 316 316 315 313 312 312 313 312 315 316 319 321 324 325 322 322 321 322 322 321 320 320 320 320 320 320 319 318 318 315 311 314 316 316 314 314 315 314 313 315 313
315 314 314 313 311 311 312 313 315 315 321 322 323 322 319 320 320 320 320 320 320 319 319 318 319 319 318 317 317 317 317 314 311 312 313 314 313 310 301 299 301 303 304
313 313 312 310 311 312 313 315 317 320 321 321 321 319 318 318 318 318 318 319 318 315 312 310 309 308 308 307 308 310 312 313 312 308 308 309 310 298 297 298 300 301 299
312 311 309 310 310 310 312 315 318 318 318 318 318 318 317 317 316 316 317 312 307 306 304 302 300 300 299 299 300 301 303 305 309 310 307 304 300 296 296 299 297 296 295
310 309 309 309 309 309 309 310 313 316 317 318 317 316 315 315 315 314 307 303 300 299 299 299 299 299 299 299 298 298 298 299 300 302 303 299 295 295 295 297 295 296 294
Wind_Speed
9 7 7 4 3 4 6 6 6 8 6 8 8 6 5 4 4 4 3 2 3 5 4 4 5 6 4 4 6 7 9 11 10 8 8 7 7 8 8 8 9 9 12
7 7 6 5 3 3 4 5 5 7 6 5 4 4 3 2 1 1 1 2 2 3 2 2 1 2 3 4 5 7 9 9 10 9 8 9 8 9 7 6 8 7 7
7 7 6 5 3 2 4 5 5 5 5 5 6 4 4 3 3 3 2 2 3 3 4 1 1 0 3 5 5 6 8 9 10 10 9 9 10 9 9 5 2 1 3
7 7 6 4 3 2 3 4 5 5 5 6 8 4 1 2 4 6 6 6 5 5 5 2 1 1 1 3 4 6 8 10 11 11 10 9 9 9 9 8 4 4 5
7 7 6 4 2 2 2 3 4 4 4 4 3 2 1 2 5 7 6 2 2 4 5 2 1 1 1 1 3 6 9 9 10 11 11 10 9 8 9 10 8 6 6
9 9 5 4 2 1 1 2 3 4 3 2 2 2 3 1 2 4 5 4 4 6 4 3 1 2 1 1 3 6 8 9 10 10 9 9 9 8 8 9 9 7 8
8 6 4 2 1 1 1 1 1 2 3 1 1 1 0 1 2 3 5 5 5 5 5 4 2 1 3 4 5 7 9 10 10 10 10 10 9 9 8 8 8 8 9
4 2 2 1 1 2 2 2 2 2 1 2 1 2 2 2 3 4 5 5 6 7 7 4 4 3 5 6 6 7 8 9 10 10 10 9 9 9 10 10 9 9 9
4 2 0 1 2 2 3 4 4 4 3 2 2 2 4 4 4 5 4 6 6 6 6 6 6 5 6 6 6 8 8 9 10 10 11 11 10 10 10 9 13 12 12
3 2 0 1 1 2 3 5 6 6 5 5 4 4 4 5 6 6 6 7 7 8 7 7 7 8 8 7 7 8 9 9 10 9 8 10 10 10 10 12 11 16 16
5 3 1 0 2 3 4 5 6 8 8 7 7 6 6 6 7 8 8 8 8 7 7 8 8 10 11 10 10 10 10 10 10 9 9 10 10 10 12 13 10 12 15
4 3 2 2 3 3 5 6 6 6 8 10 9 9 8 9 9 10 10 10 10 10 10 10 11 12 12 11 10 11 11 11 11 11 10 11 12 12 13 14 14 14 14
3 5 5 6 6 7 7 7 7 7 7 8 9 9 9 9 9 9 10 9 10 10 10 11 11 11 11 12 12 11 11 12 13 13 13 14 15 15 15 16 16 16 18
7 7 9 9 11 11 11 11 9 9 8 8 10 11 12 10 10 10 10 10 11 10 11 11 12 11 11 11 12 12 13 13 13 13 13 13 15 16 17 18 18 18 18
10 8 10 12 13 12 13 14 13 11 10 9 10 12 13 12 10 11 12 13 12 13 13 13 13 13 13 12 13 14 14 14 15 16 17 18 17 17 18 18 19 20 21
10 11 12 11 11 12 12 13 15 15 13 12 13 13 13 12 11 13 14 14 15 15 16 16 16 16 15 15 15 15 15 15 15 17 18 19 20 19 18 18 20 22 22
13 12 13 11 11 12 12 13 16 18 17 17 16 17 16 15 16 15 14 15 15 16 19 18 18 18 18 17 18 16 17 18 19 18 19 20 22 21 20 19 18 18 16
13 12 14 14 15 15 14 13 14 17 20 21 20 19 20 19 19 19 17 17 17 18 18 19 19 19 19 19 19 19 19 20 21 20 21 22 24 24 21 17 16 16 17
15 14 15 17 18 18 17 17 17 18 20 22 22 21 21 22 22 20 21 19 20 19 20 19 19 20 20 21 23 24 23 21 22 23 23 21 20 18 15 14 15 19 18
13 13 14 16 19 20 20 20 21 21 22 22 22 22 21 21 21 21 20 18 20 20 21 21 21 21 20 22 23 23 22 21 22 21 20 18 15 12 11 13 15 17 17
12 13 15 17 19 20 20 21 22 22 21 20 20 19 17 17 15 18 17 20 19 18 19 20 21 22 22 22 22 23 22 20 21 20 18 13 9 11 13 14 14 15 15
12 13 14 15 16 17 15 13 13 13 13 14 13 11 11 10 11 16 18 18 19 17 18 19 19 19 19 20 19 19 16 14 9 4 9 10 12 12 12 16 16 16 16
13 12 12 12 11 10 9 8 7 5 4 5 7 7 10 11 13 14 15 16 17 20 21 20 21 21 20 20 20 14 7 5 11 4 7 12 9 13 15 13 12 11 11
11 10 10 8 7 5 4 3 2 2 4 6 10 10 10 11 14 16 19 21 19 16 14 13 13 13 13 14 13 13 14 17 10 7 7 6 12 11 8 5 4 5 8
10 8 6 4 2 2 1 2 3 6 8 10 12 13 15 15 16 17 16 14 13 12 12 11 11 12 12 13 13 13 14 16 16 16 19 13 11 8 6 5 4 6 10
9 6 3 1 1 2 2 1 3 5 8 10 12 13 14 15 15 14 13 12 11 11 11 11 12 13 14 14 14 13 12 12 13 13 14 15 9 6 8 8 11 11 14
Wind_Direction
149 150 147 138 106 64 59 64 114 130 138 132 130 124 122 118 113 104 93 52 11 30 58 83 73 78 75 59 38 16 1 356 357 8 25 32 29 49 58 67 50 57 63
140 148 143 148 126 78 64 68 102 141 148 150 149 135 129 117 97 45 319 309 322 317 306 346 2 48 24 22 12 358 356 5 20 32 41 35 38 39 49 72 71 44 64
143 152 142 143 139 100 69 71 86 117 137 138 114 108 104 76 38 22 32 36 52 40 18 19 316 354 3 359 354 5 13 22 33 36 33 32 34 38 40 50 74 68 355
142 154 139 132 136 114 70 70 69 95 114 128 140 177 126 46 46 60 71 57 71 54 35 41 104 177 332 1 9 4 10 18 24 24 25 28 30 26 20 27 357 323 324
155 160 140 128 130 119 71 73 66 70 102 115 120 154 135 68 74 66 68 94 2 331 342 355 43 128 309 337 348 355 357 3 8 9 13 17 20 15 8 5 356 345 331
144 145 140 136 143 152 77 66 67 59 74 125 121 100 97 116 353 28 27 10 0 4 12 50 102 112 212 311 327 338 346 347 348 353 359 2 3 6 359 358 359 347 333
145 151 142 147 166 207 248 7 44 44 36 34 185 198 104 26 306 325 354 12 15 22 33 31 29 286 300 305 315 321 326 330 334 337 342 344 346 347 348 349 352 347 333
122 150 161 197 227 266 278 296 316 326 349 18 238 262 247 280 308 310 322 338 352 7 20 12 336 322 312 307 310 313 316 318 323 325 328 332 330 331 334 330 334 333 329
113 105 85 277 237 261 277 283 285 289 292 302 300 267 258 269 292 301 305 311 319 335 349 359 2 345 328 314 310 312 311 312 315 314 317 320 319 318 322 308 311 323 324
158 167 100 346 358 288 288 290 282 277 276 274 273 278 278 280 286 293 296 303 307 307 313 323 330 332 329 324 324 320 317 318 318 318 322 329 319 316 317 320 299 308 319
184 188 206 334 343 324 311 318 299 280 275 271 270 268 271 276 277 282 284 287 292 303 304 305 311 313 317 314 314 314 320 324 326 321 319 318 322 318 317 317 310 296 303
199 216 250 265 287 302 317 322 321 312 290 281 270 270 272 272 273 276 280 280 284 290 295 302 301 301 309 315 312 312 311 315 321 320 316 312 310 308 308 309 307 297 293
198 232 261 268 275 287 294 298 316 312 314 339 320 275 267 270 273 275 269 277 276 281 293 300 305 309 308 313 314 314 315 315 317 318 316 313 311 309 307 305 303 301 303
238 249 255 264 269 276 280 280 287 296 300 311 322 325 322 282 280 287 294 287 286 290 291 297 298 299 302 308 318 318 312 312 316 318 320 321 321 318 314 312 309 306 302
235 242 251 257 269 267 267 268 270 281 292 300 299 307 313 325 295 288 289 289 292 290 296 295 298 299 302 310 309 312 311 313 314 317 318 320 315 317 321 326 323 309 307
226 243 261 261 263 265 274 270 266 268 275 281 278 284 297 292 284 291 292 299 293 291 290 291 292 295 297 298 300 305 310 309 310 316 316 317 313 311 313 305 302 305 307
239 247 258 263 264 264 273 277 264 258 263 268 271 274 278 282 287 291 290 295 300 296 290 291 293 293 294 296 299 300 297 297 300 306 306 308 309 307 302 299 295 297 306
239 245 252 259 262 267 275 281 276 269 266 267 268 261 265 270 274 280 285 288 290 294 289 287 287 291 295 296 298 294 294 297 304 304 303 300 296 295 293 291 291 298 302
237 243 248 254 258 263 267 268 266 263 262 263 265 265 259 258 263 269 269 279 285 288 288 285 292 295 296 293 291 289 291 293 296 295 296 298 299 297 288 284 288 290 292
230 239 248 255 259 263 268 272 270 264 261 261 263 264 264 262 263 267 270 278 278 282 287 287 289 291 290 294 293 294 290 290 291 298 297 296 290 287 291 282 281 283 290
232 243 249 255 262 269 274 277 275 270 262 261 263 267 270 270 265 270 283 281 281 284 284 291 293 293 292 291 297 296 293 290 287 291 288 289 281 289 289 287 287 288 293
241 250 259 266 272 280 284 282 279 267 263 261 261 262 270 270 273 272 278 282 285 288 290 287 286 289 289 288 290 291 303 306 293 280 272 280 286 286 290 288 288 287 291
241 255 263 272 282 289 292 289 288 276 239 266 254 261 282 284 281 280 281 282 286 286 279 276 281 283 283 284 283 277 283 277 305 294 255 264 269 287 296 294 287 288 300
241 252 265 277 286 300 304 288 267 270 243 239 256 268 276 278 279 286 280 281 284 285 286 289 293 293 291 287 283 279 267 264 280 285 278 278 287 300 297 296 308 318 328
229 245 257 273 310 342 334 293 251 255 264 263 268 272 274 275 274 278 284 285 286 289 294 300 302 299 297 294 288 281 275 271 266 256 276 273 297 284 290 275 298 321 331
213 222 212 161 50 24 28 309 276 262 271 280 279 284 279 281 285 286 284 284 287 293 299 301 302 303 302 299 295 290 281 269 266 261 263 278 290 257 286 284 306 306 317